Time,TemperatureF,DewpointF,PressureIn,WindDirection,WindDirectionDegrees,WindSpeedMPH,WindSpeedGustMPH,Humidity,HourlyPrecipIn,Conditions,Clouds,dailyrainin,SoftwareType,DateUTC
2013-02-20 00:00:00,31.7,-1.0,29.99,NNE,22,1.0,4.0,24,0.00,,,0.01,Wunderground v.1.15,2013-02-20 08:00:00,
2013-02-20 00:05:00,31.8,-1.0,29.99,NNE,22,0.0,4.0,24,0.00,,,0.01,Wunderground v.1.15,2013-02-20 08:05:00,
2013-02-20 00:10:00,32.0,-0.8,29.99,NNE,20,0.0,4.0,24,0.00,,,0.01,Wunderground v.1.15,2013-02-20 08:10:00,
2013-02-20 00:15:00,32.2,-0.6,29.99,NNE,20,0.0,4.0,24,0.00,,,0.01,Wunderground v.1.15,2013-02-20 08:15:00,
2013-02-20 00:20:00,32.2,-0.6,29.99,NNE,20,0.0,4.0,24,0.00,,,0.01,Wunderground v.1.15,2013-02-20 08:20:00,
2013-02-20 00:25:00,32.1,-0.7,29.99,NNE,20,0.0,4.0,24,0.00,,,0.01,Wunderground v.1.15,2013-02-20 08:25:00,
2013-02-20 00:30:00,32.0,0.1,29.99,NNE,20,0.0,4.0,25,0.00,,,0.00,Wunderground v.1.15,2013-02-20 08:30:00,
2013-02-20 00:35:00,32.1,0.2,30.00,NW,316,0.0,4.0,25,0.00,,,0.00,Wunderground v.1.15,2013-02-20 08:35:00,
2013-02-20 00:40:00,32.3,0.3,29.99,NNE,18,0.0,4.0,25,0.00,,,0.00,Wunderground v.1.15,2013-02-20 08:40:00,
2013-02-20 00:45:00,32.4,0.4,30.00,North,1,1.0,4.0,25,0.00,,,0.00,Wunderground v.1.15,2013-02-20 08:45:00,
2013-02-20 00:50:00,32.3,0.3,30.00,NNE,15,1.0,1.0,25,0.00,,,0.00,Wunderground v.1.15,2013-02-20 08:50:00,
2013-02-20 00:55:00,32.0,0.1,30.00,NNE,14,0.0,4.0,25,0.00,,,0.00,Wunderground v.1.15,2013-02-20 08:55:00,
2013-02-20 01:00:00,31.7,-0.2,30.00,NNE,15,0.0,4.0,25,0.00,,,0.00,Wunderground v.1.15,2013-02-20 09:00:00,
2013-02-20 01:05:00,31.6,-0.3,30.00,NNE,15,0.0,4.0,25,0.00,,,0.00,Wunderground v.1.15,2013-02-20 09:05:00,
2013-02-20 01:10:00,31.5,0.5,30.00,NNE,13,0.0,4.0,26,0.00,,,0.00,Wunderground v.1.15,2013-02-20 09:10:00,
2013-02-20 01:15:00,31.2,0.2,30.00,NNE,13,0.0,4.0,26,0.00,,,0.00,Wunderground v.1.15,2013-02-20 09:15:00,
2013-02-20 01:20:00,31.2,0.2,30.00,NNE,13,0.0,4.0,26,0.00,,,0.00,Wunderground v.1.15,2013-02-20 09:20:00,
2013-02-20 01:25:00,31.3,0.3,30.00,NNE,13,0.0,4.0,26,0.00,,,0.00,Wunderground v.1.15,2013-02-20 09:25:00,
2013-02-20 01:30:00,31.2,0.2,30.00,NNE,13,1.0,1.0,26,0.00,,,0.00,Wunderground v.1.15,2013-02-20 09:30:00,
2013-02-20 01:35:00,31.2,0.2,30.00,NE,41,1.0,4.0,26,0.00,,,0.00,Wunderground v.1.15,2013-02-20 09:35:00,
2013-02-20 01:40:00,31.4,0.4,30.00,NE,41,0.0,4.0,26,0.00,,,0.00,Wunderground v.1.15,2013-02-20 09:40:00,
2013-02-20 01:45:00,31.6,-0.3,30.00,NNE,13,1.0,4.0,25,0.00,,,0.00,Wunderground v.1.15,2013-02-20 09:45:00,
2013-02-20 01:50:00,32.1,0.2,30.01,North,356,1.0,4.0,25,0.00,,,0.00,Wunderground v.1.15,2013-02-20 09:50:00,
2013-02-20 01:55:00,32.4,0.4,30.01,NE,48,1.0,4.0,25,0.00,,,0.00,Wunderground v.1.15,2013-02-20 09:55:00,
2013-02-20 02:00:00,32.7,0.7,30.01,NNE,13,1.0,1.0,25,0.00,,,0.00,Wunderground v.1.15,2013-02-20 10:00:00,
2013-02-20 02:05:00,32.9,0.9,30.01,NE,51,1.0,4.0,25,0.00,,,0.00,Wunderground v.1.15,2013-02-20 10:05:00,
2013-02-20 02:10:00,33.1,1.0,30.01,North,349,1.0,4.0,25,0.00,,,0.00,Wunderground v.1.15,2013-02-20 10:10:00,
2013-02-20 02:15:00,33.3,0.3,30.01,NNW,335,1.0,4.0,24,0.00,,,0.00,Wunderground v.1.15,2013-02-20 10:15:00,
2013-02-20 02:19:00,33.4,0.4,30.01,NNE,13,1.0,4.0,24,0.00,,,0.00,Wunderground v.1.15,2013-02-20 10:19:00,
2013-02-20 02:25:00,33.4,0.4,30.01,NNE,23,1.0,4.0,24,0.00,,,0.00,Wunderground v.1.15,2013-02-20 10:25:00,
2013-02-20 02:35:00,33.2,0.2,30.02,NNE,16,0.0,4.0,24,0.00,,,0.00,Wunderground v.1.15,2013-02-20 10:35:00,
2013-02-20 02:40:00,33.3,0.3,30.02,NNW,345,0.0,4.0,24,0.00,,,0.00,Wunderground v.1.15,2013-02-20 10:40:00,
2013-02-20 02:45:00,33.3,0.3,30.02,NNE,18,0.0,4.0,24,0.00,,,0.00,Wunderground v.1.15,2013-02-20 10:45:00,
2013-02-20 02:50:00,33.3,0.3,30.02,ENE,70,0.0,4.0,24,0.00,,,0.00,Wunderground v.1.15,2013-02-20 10:50:00,
2013-02-20 03:00:00,33.1,-0.8,30.02,SW,228,0.0,4.0,23,0.00,,,0.00,Wunderground v.1.15,2013-02-20 11:00:00,
2013-02-20 03:05:00,32.9,-0.9,30.02,SW,224,1.0,4.0,23,0.00,,,0.00,Wunderground v.1.15,2013-02-20 11:05:00,
2013-02-20 03:10:00,32.7,-0.2,30.02,SSW,211,1.0,1.0,24,0.00,,,0.00,Wunderground v.1.15,2013-02-20 11:10:00,
2013-02-20 03:15:00,32.5,0.5,30.02,SSW,211,0.0,4.0,25,0.00,,,0.00,Wunderground v.1.15,2013-02-20 11:15:00,
2013-02-20 03:20:00,32.6,0.6,30.02,SSW,211,0.0,4.0,25,0.00,,,0.00,Wunderground v.1.15,2013-02-20 11:20:00,
2013-02-20 03:30:00,32.7,0.7,30.02,SSW,211,0.0,4.0,25,0.00,,,0.00,Wunderground v.1.15,2013-02-20 11:30:00,
2013-02-20 03:35:00,32.6,0.6,30.02,SSW,211,0.0,4.0,25,0.00,,,0.00,Wunderground v.1.15,2013-02-20 11:35:00,
2013-02-20 03:40:00,32.7,0.7,30.02,SSW,211,0.0,4.0,25,0.00,,,0.00,Wunderground v.1.15,2013-02-20 11:40:00,
2013-02-20 03:45:00,33.0,0.1,30.03,SSW,211,0.0,4.0,24,0.00,,,0.00,Wunderground v.1.15,2013-02-20 11:45:00,
2013-02-20 03:50:00,33.2,-0.7,30.03,SSW,211,0.0,4.0,23,0.00,,,0.00,Wunderground v.1.15,2013-02-20 11:50:00,
2013-02-20 03:55:00,33.0,-0.8,30.03,SSW,211,0.0,4.0,23,0.00,,,0.00,Wunderground v.1.15,2013-02-20 11:55:00,
2013-02-20 04:00:00,32.9,0.0,30.03,SSW,211,0.0,4.0,24,0.00,,,0.00,Wunderground v.1.15,2013-02-20 12:00:00,
2013-02-20 04:05:00,32.9,0.0,30.03,SSW,211,0.0,4.0,24,0.00,,,0.00,Wunderground v.1.15,2013-02-20 12:05:00,
2013-02-20 04:10:00,33.0,0.1,30.03,SSW,211,0.0,4.0,24,0.00,,,0.00,Wunderground v.1.15,2013-02-20 12:10:00,
2013-02-20 04:15:00,33.3,-0.6,30.03,SSW,211,0.0,4.0,23,0.00,,,0.00,Wunderground v.1.15,2013-02-20 12:15:00,
2013-02-20 04:20:00,33.3,-0.6,30.03,SSW,210,0.0,4.0,23,0.00,,,0.00,Wunderground v.1.15,2013-02-20 12:20:00,
2013-02-20 04:25:00,33.3,-0.6,30.03,SSW,211,0.0,4.0,23,0.00,,,0.00,Wunderground v.1.15,2013-02-20 12:25:00,
2013-02-20 04:30:00,33.4,-0.5,30.03,SSW,211,0.0,4.0,23,0.00,,,0.00,Wunderground v.1.15,2013-02-20 12:30:00,
2013-02-20 04:35:00,33.6,-1.3,30.04,SSW,211,0.0,4.0,22,0.00,,,0.00,Wunderground v.1.15,2013-02-20 12:35:00,
2013-02-20 04:40:00,33.6,-1.3,30.03,SSW,211,0.0,4.0,22,0.00,,,0.00,Wunderground v.1.15,2013-02-20 12:40:00,
2013-02-20 04:45:00,33.6,-1.3,30.03,SSW,211,0.0,4.0,22,0.00,,,0.00,Wunderground v.1.15,2013-02-20 12:45:00,
2013-02-20 04:50:00,33.7,-1.2,30.04,SSW,211,0.0,4.0,22,0.00,,,0.00,Wunderground v.1.15,2013-02-20 12:50:00,
2013-02-20 04:55:00,33.8,-2.1,30.04,SSW,211,0.0,4.0,21,0.00,,,0.00,Wunderground v.1.15,2013-02-20 12:55:00,
2013-02-20 04:59:00,33.9,-2.0,30.03,SSW,211,0.0,4.0,21,0.00,,,0.00,Wunderground v.1.15,2013-02-20 12:59:00,
2013-02-20 05:05:00,33.9,-2.0,30.03,SSW,211,0.0,4.0,21,0.00,,,0.00,Wunderground v.1.15,2013-02-20 13:05:00,
2013-02-20 05:10:00,34.0,-1.9,30.04,SSW,211,0.0,4.0,21,0.00,,,0.00,Wunderground v.1.15,2013-02-20 13:10:00,
2013-02-20 05:15:00,34.2,-1.8,30.04,NE,37,0.0,4.0,21,0.00,,,0.00,Wunderground v.1.15,2013-02-20 13:15:00,
2013-02-20 05:20:00,34.3,-1.7,30.04,NNE,29,0.0,4.0,21,0.00,,,0.00,Wunderground v.1.15,2013-02-20 13:20:00,
2013-02-20 05:25:00,34.4,-1.6,30.04,NNE,29,0.0,4.0,21,0.00,,,0.00,Wunderground v.1.15,2013-02-20 13:25:00,
2013-02-20 05:30:00,34.4,-1.6,30.04,NNE,12,0.0,4.0,21,0.00,,,0.00,Wunderground v.1.15,2013-02-20 13:30:00,
2013-02-20 05:35:00,34.4,-1.6,30.04,West,259,0.0,4.0,21,0.00,,,0.00,Wunderground v.1.15,2013-02-20 13:35:00,
2013-02-20 05:40:00,34.4,-0.6,30.04,SW,236,0.0,4.0,22,0.00,,,0.00,Wunderground v.1.15,2013-02-20 13:40:00,
2013-02-20 05:45:00,34.4,0.4,30.04,SW,236,0.0,4.0,23,0.00,,,0.00,Wunderground v.1.15,2013-02-20 13:45:00,
2013-02-20 05:50:00,34.5,1.4,30.03,West,274,0.0,4.0,24,0.00,,,0.00,Wunderground v.1.15,2013-02-20 13:50:00,
2013-02-20 05:55:00,34.6,3.2,30.04,WSW,248,0.0,4.0,26,0.00,,,0.00,Wunderground v.1.15,2013-02-20 13:55:00,
2013-02-20 05:59:00,34.8,8.6,30.03,WNW,283,1.0,1.0,33,0.00,,,0.00,Wunderground v.1.15,2013-02-20 13:59:00,
2013-02-20 06:05:00,35.0,15.3,30.03,ESE,118,1.0,4.0,44,0.00,,,0.00,Wunderground v.1.15,2013-02-20 14:05:00,
2013-02-20 06:10:00,34.9,19.0,30.03,West,259,0.0,4.0,52,0.00,,,0.00,Wunderground v.1.15,2013-02-20 14:10:00,
2013-02-20 06:15:00,35.0,21.3,30.03,West,260,1.0,4.0,57,0.00,,,0.00,Wunderground v.1.15,2013-02-20 14:15:00,
2013-02-20 06:20:00,34.9,22.8,30.03,WSW,250,1.0,4.0,61,0.00,,,0.00,Wunderground v.1.15,2013-02-20 14:20:00,
2013-02-20 06:25:00,34.9,23.2,30.03,WNW,285,1.0,4.0,62,0.00,,,0.00,Wunderground v.1.15,2013-02-20 14:25:00,
2013-02-20 06:30:00,34.9,23.6,30.03,WNW,297,1.0,1.0,63,0.00,,,0.00,Wunderground v.1.15,2013-02-20 14:30:00,
2013-02-20 06:35:00,34.9,23.6,30.03,ESE,118,0.0,4.0,63,0.00,,,0.00,Wunderground v.1.15,2013-02-20 14:35:00,
2013-02-20 06:40:00,34.8,23.1,30.02,WNW,295,0.0,4.0,62,0.00,,,0.00,Wunderground v.1.15,2013-02-20 14:40:00,
2013-02-20 06:45:00,34.9,23.9,30.02,West,267,1.0,4.0,64,0.00,,,0.00,Wunderground v.1.15,2013-02-20 14:45:00,
2013-02-20 06:50:00,35.1,25.6,30.03,NNW,345,1.0,1.0,68,0.00,,,0.00,Wunderground v.1.15,2013-02-20 14:50:00,
2013-02-20 06:55:00,35.2,26.4,30.02,West,277,1.0,4.0,70,0.00,,,0.00,Wunderground v.1.15,2013-02-20 14:55:00,
2013-02-20 06:59:00,35.6,28.8,30.02,WSW,248,1.0,-999.0,76,0.00,,,0.00,Wunderground v.1.15,2013-02-20 14:59:00,
2013-02-20 07:04:00,35.6,28.8,30.02,WSW,248,1.0,-999.0,76,0.00,,,0.00,Wunderground v.1.15,2013-02-20 15:04:00,
2013-02-20 07:05:00,35.3,27.5,30.02,South,173,1.0,4.0,73,0.00,,,0.00,Wunderground v.1.15,2013-02-20 15:05:00,
2013-02-20 07:09:00,35.6,28.8,30.02,WSW,248,1.0,-999.0,76,0.00,,,0.00,Wunderground v.1.15,2013-02-20 15:09:00,
2013-02-20 07:10:00,35.4,27.9,30.02,SSW,211,1.0,4.0,74,0.00,,,0.00,Wunderground v.1.15,2013-02-20 15:10:00,
2013-02-20 07:14:00,35.6,28.8,30.02,WSW,248,1.0,-999.0,76,0.00,,,0.00,Wunderground v.1.15,2013-02-20 15:14:00,
2013-02-20 07:15:00,35.4,28.3,30.02,WSW,256,1.0,4.0,75,0.00,,,0.00,Wunderground v.1.15,2013-02-20 15:15:00,
2013-02-20 07:19:00,36.3,30.7,30.02,WSW,248,1.0,-999.0,80,0.00,,,0.00,Wunderground v.1.15,2013-02-20 15:19:00,
2013-02-20 07:20:00,35.5,28.0,30.02,WSW,257,1.0,1.0,74,0.00,,,0.00,Wunderground v.1.15,2013-02-20 15:20:00,
2013-02-20 07:24:00,36.3,30.7,30.02,WSW,248,1.0,-999.0,80,0.00,,,0.00,Wunderground v.1.15,2013-02-20 15:24:00,
2013-02-20 07:25:00,35.5,28.4,30.02,West,267,0.0,4.0,75,0.00,,,0.00,Wunderground v.1.15,2013-02-20 15:25:00,
2013-02-20 07:29:00,36.3,30.7,30.02,WSW,248,1.0,-999.0,80,0.00,,,0.00,Wunderground v.1.15,2013-02-20 15:29:00,
2013-02-20 07:30:00,35.7,28.6,30.02,West,267,0.0,4.0,75,0.00,,,0.00,Wunderground v.1.15,2013-02-20 15:30:00,
2013-02-20 07:35:00,35.8,29.3,30.02,NNW,328,1.0,4.0,77,0.00,,,0.00,Wunderground v.1.15,2013-02-20 15:35:00,
2013-02-20 07:40:00,36.1,29.9,30.02,SW,216,1.0,4.0,78,0.00,,,0.00,Wunderground v.1.15,2013-02-20 15:40:00,
2013-02-20 07:45:00,36.2,30.9,30.02,WSW,255,1.0,4.0,81,0.00,,,0.00,Wunderground v.1.15,2013-02-20 15:45:00,
2013-02-20 08:00:00,36.3,31.0,30.02,WNW,283,1.0,1.0,81,0.00,,,0.00,Wunderground v.1.15,2013-02-20 16:00:00,
2013-02-20 08:04:00,36.3,31.0,30.02,NW,314,1.0,1.0,81,0.00,,,0.00,Wunderground v.1.15,2013-02-20 16:04:00,
2013-02-20 08:10:00,36.3,31.0,30.02,SSE,152,1.0,1.0,81,0.00,,,0.00,Wunderground v.1.15,2013-02-20 16:10:00,
2013-02-20 08:15:00,36.4,31.4,30.02,NNE,12,1.0,1.0,82,0.00,,,0.00,Wunderground v.1.15,2013-02-20 16:15:00,
2013-02-20 08:20:00,36.5,31.5,30.02,NNW,338,1.0,1.0,82,0.00,,,0.00,Wunderground v.1.15,2013-02-20 16:20:00,
2013-02-20 08:25:00,36.6,31.0,30.02,NNW,338,1.0,1.0,80,0.00,,,0.00,Wunderground v.1.15,2013-02-20 16:25:00,
2013-02-20 08:29:00,36.5,29.7,30.02,NNW,338,0.0,1.0,76,0.00,,,0.00,Wunderground v.1.15,2013-02-20 16:29:00,
2013-02-20 08:34:00,36.4,28.2,30.02,NNW,338,0.0,4.0,72,0.00,,,0.01,Wunderground v.1.15,2013-02-20 16:34:00,
2013-02-20 08:40:00,36.3,26.4,30.02,West,277,0.0,4.0,67,0.00,,,0.01,Wunderground v.1.15,2013-02-20 16:40:00,
2013-02-20 08:45:00,36.3,24.5,30.02,West,277,0.0,4.0,62,0.00,,,0.01,Wunderground v.1.15,2013-02-20 16:45:00,
2013-02-20 08:50:00,36.3,23.3,30.02,West,277,0.0,4.0,59,0.00,,,0.01,Wunderground v.1.15,2013-02-20 16:50:00,
2013-02-20 08:55:00,36.3,22.5,30.02,West,276,0.0,4.0,57,0.00,,,0.01,Wunderground v.1.15,2013-02-20 16:55:00,
2013-02-20 09:00:00,36.3,21.7,30.02,NNW,338,0.0,4.0,55,0.00,,,0.01,Wunderground v.1.15,2013-02-20 17:00:00,
2013-02-20 09:05:00,36.4,24.6,30.02,NE,37,0.0,4.0,62,0.00,,,0.01,Wunderground v.1.15,2013-02-20 17:05:00,
2013-02-20 09:10:00,36.5,23.9,30.02,NE,40,0.0,4.0,60,0.00,,,0.01,Wunderground v.1.15,2013-02-20 17:10:00,
2013-02-20 09:15:00,36.7,22.9,30.02,NE,40,0.0,4.0,57,0.00,,,0.01,Wunderground v.1.15,2013-02-20 17:15:00,
2013-02-20 09:20:00,36.9,21.8,30.02,NE,40,0.0,4.0,54,0.00,,,0.01,Wunderground v.1.15,2013-02-20 17:20:00,
2013-02-20 09:25:00,37.1,22.4,30.03,NE,40,0.0,4.0,55,0.00,,,0.01,Wunderground v.1.15,2013-02-20 17:25:00,
2013-02-20 09:30:00,37.2,23.4,30.02,NNW,339,0.0,4.0,57,0.00,,,0.01,Wunderground v.1.15,2013-02-20 17:30:00,
2013-02-20 09:35:00,37.3,25.5,30.03,NNW,338,0.0,4.0,62,0.00,,,0.01,Wunderground v.1.15,2013-02-20 17:35:00,
2013-02-20 09:40:00,37.3,26.2,30.02,SE,134,0.0,4.0,64,0.00,,,0.01,Wunderground v.1.15,2013-02-20 17:40:00,
2013-02-20 09:45:00,37.5,24.9,30.03,SE,135,1.0,4.0,60,0.00,,,0.01,Wunderground v.1.15,2013-02-20 17:45:00,
2013-02-20 09:50:00,37.5,25.7,30.02,SE,134,0.0,4.0,62,0.00,,,0.01,Wunderground v.1.15,2013-02-20 17:50:00,
2013-02-20 09:55:00,37.7,24.2,30.02,SE,134,0.0,4.0,58,0.00,,,0.01,Wunderground v.1.15,2013-02-20 17:55:00,
2013-02-20 10:00:00,37.8,24.7,30.02,North,351,0.0,4.0,59,0.00,,,0.01,Wunderground v.1.15,2013-02-20 18:00:00,
2013-02-20 10:04:00,37.7,27.4,30.02,SE,132,1.0,4.0,66,0.00,,,0.01,Wunderground v.1.15,2013-02-20 18:04:00,
2013-02-20 10:10:00,37.9,30.7,30.02,West,271,1.0,4.0,75,0.00,,,0.01,Wunderground v.1.15,2013-02-20 18:10:00,
2013-02-20 10:15:00,37.9,32.0,30.02,North,7,1.0,4.0,79,0.00,,,0.01,Wunderground v.1.15,2013-02-20 18:15:00,
2013-02-20 10:20:00,37.9,31.3,30.02,NW,304,0.0,4.0,77,0.00,,,0.01,Wunderground v.1.15,2013-02-20 18:20:00,
2013-02-20 10:25:00,38.0,32.1,30.02,WNW,303,0.0,4.0,79,0.00,,,0.01,Wunderground v.1.15,2013-02-20 18:25:00,
2013-02-20 10:35:00,38.3,32.7,30.02,WNW,293,0.0,4.0,80,0.00,,,0.01,Wunderground v.1.15,2013-02-20 18:35:00,
2013-02-20 10:40:00,38.6,33.0,30.02,WNW,292,0.0,4.0,80,0.00,,,0.01,Wunderground v.1.15,2013-02-20 18:40:00,
2013-02-20 10:45:00,38.8,34.4,30.02,SE,129,0.0,4.0,84,0.00,,,0.01,Wunderground v.1.15,2013-02-20 18:45:00,
2013-02-20 10:50:00,39.0,34.3,30.02,SE,128,0.0,4.0,83,0.00,,,0.01,Wunderground v.1.15,2013-02-20 18:50:00,
2013-02-20 10:55:00,39.1,34.7,30.02,SE,128,0.0,4.0,84,0.00,,,0.01,Wunderground v.1.15,2013-02-20 18:55:00,
2013-02-20 11:00:00,39.1,34.4,30.02,SE,128,0.0,4.0,83,0.00,,,0.01,Wunderground v.1.15,2013-02-20 19:00:00,
2013-02-20 11:05:00,39.0,34.6,30.02,SSW,205,0.0,4.0,84,0.00,,,0.01,Wunderground v.1.15,2013-02-20 19:05:00,
2013-02-20 11:10:00,38.8,34.4,30.02,NE,56,1.0,1.0,84,0.00,,,0.01,Wunderground v.1.15,2013-02-20 19:10:00,
2013-02-20 11:15:00,38.7,34.3,30.02,WNW,288,1.0,4.0,84,0.00,,,0.01,Wunderground v.1.15,2013-02-20 19:15:00,
2013-02-20 11:20:00,38.7,34.3,30.02,ESE,106,1.0,4.0,84,0.00,,,0.01,Wunderground v.1.15,2013-02-20 19:20:00,
2013-02-20 11:25:00,38.8,34.4,30.02,North,353,0.0,4.0,84,0.00,,,0.01,Wunderground v.1.15,2013-02-20 19:25:00,
2013-02-20 11:30:00,38.9,34.5,30.02,ENE,57,0.0,4.0,84,0.00,,,0.01,Wunderground v.1.15,2013-02-20 19:30:00,
2013-02-20 13:40:00,42.9,36.8,29.99,SSW,198,1.0,4.0,79,0.00,,,0.01,Wunderground v.1.15,2013-02-20 21:40:00,
2013-02-20 13:49:00,42.6,36.5,29.99,ESE,108,1.0,1.0,79,0.00,,,0.01,Wunderground v.1.15,2013-02-20 21:49:00,
2013-02-20 13:55:00,42.4,36.7,29.99,ESE,106,0.0,4.0,80,0.00,,,0.01,Wunderground v.1.15,2013-02-20 21:55:00,
2013-02-20 14:00:00,42.4,37.0,29.99,ESE,106,0.0,4.0,81,0.00,,,0.01,Wunderground v.1.15,2013-02-20 22:00:00,
2013-02-20 14:05:00,42.3,37.2,29.99,SSE,162,0.0,4.0,82,0.00,,,0.01,Wunderground v.1.15,2013-02-20 22:05:00,
2013-02-20 14:10:00,42.3,36.9,29.99,SSE,163,0.0,4.0,81,0.00,,,0.01,Wunderground v.1.15,2013-02-20 22:10:00,
2013-02-20 14:15:00,42.3,37.2,29.99,SSE,162,0.0,4.0,82,0.00,,,0.01,Wunderground v.1.15,2013-02-20 22:15:00,
2013-02-20 14:20:00,42.3,37.2,29.99,SSE,163,0.0,4.0,82,0.00,,,0.01,Wunderground v.1.15,2013-02-20 22:20:00,
2013-02-20 14:25:00,42.3,36.9,29.98,West,281,0.0,4.0,81,0.00,,,0.01,Wunderground v.1.15,2013-02-20 22:25:00,
2013-02-20 14:30:00,42.2,37.1,29.99,WNW,288,0.0,4.0,82,0.00,,,0.01,Wunderground v.1.15,2013-02-20 22:30:00,
2013-02-20 14:35:00,42.1,37.3,29.99,SSW,205,0.0,4.0,83,0.00,,,0.01,Wunderground v.1.15,2013-02-20 22:35:00,
2013-02-20 14:40:00,41.9,36.8,29.98,SSE,149,1.0,1.0,82,0.00,,,0.01,Wunderground v.1.15,2013-02-20 22:40:00,
2013-02-20 14:50:00,41.4,36.6,29.99,SE,124,1.0,1.0,83,0.00,,,0.01,Wunderground v.1.15,2013-02-20 22:50:00,
2013-02-20 14:55:00,41.2,35.8,29.99,SE,124,0.0,4.0,81,0.00,,,0.02,Wunderground v.1.15,2013-02-20 22:55:00,
2013-02-20 15:00:00,40.9,35.2,29.99,SSW,211,0.0,4.0,80,0.00,,,0.02,Wunderground v.1.15,2013-02-20 23:00:00,
2013-02-20 15:05:00,40.6,34.6,29.99,ESE,110,0.0,4.0,79,0.00,,,0.02,Wunderground v.1.15,2013-02-20 23:05:00,
2013-02-20 15:10:00,40.4,33.1,29.99,NNW,344,0.0,4.0,75,0.00,,,0.02,Wunderground v.1.15,2013-02-20 23:10:00,
2013-02-20 15:15:00,40.3,31.6,29.99,NNE,12,0.0,4.0,71,0.00,,,0.02,Wunderground v.1.15,2013-02-20 23:15:00,
2013-02-20 15:20:00,39.9,33.3,29.99,WNW,294,0.0,4.0,77,0.00,,,0.02,Wunderground v.1.15,2013-02-20 23:20:00,
2013-02-20 15:25:00,39.7,32.4,30.00,NNE,23,0.0,4.0,75,0.00,,,0.02,Wunderground v.1.15,2013-02-20 23:25:00,
2013-02-20 15:30:00,39.7,31.1,30.00,NW,304,0.0,4.0,71,0.00,,,0.02,Wunderground v.1.15,2013-02-20 23:30:00,
2013-02-20 15:35:00,39.6,29.9,30.00,NNE,30,0.0,4.0,68,0.00,,,0.02,Wunderground v.1.15,2013-02-20 23:35:00,
2013-02-20 15:39:00,39.3,31.0,30.00,North,353,1.0,4.0,72,0.00,,,0.02,Wunderground v.1.15,2013-02-20 23:39:00,
2013-02-20 15:45:00,39.2,30.6,30.00,WNW,295,1.0,4.0,71,0.00,,,0.03,Wunderground v.1.15,2013-02-20 23:45:00,
2013-02-20 15:50:00,39.3,28.1,30.00,South,175,1.0,4.0,64,0.00,,,0.03,Wunderground v.1.15,2013-02-20 23:50:00,
2013-02-20 15:55:00,39.2,28.0,30.00,NW,307,1.0,4.0,64,0.00,,,0.03,Wunderground v.1.15,2013-02-20 23:55:00,
2013-02-20 16:00:00,39.2,26.1,30.00,NW,309,0.0,4.0,59,0.00,,,0.03,Wunderground v.1.15,2013-02-21 00:00:00,
2013-02-20 16:04:00,39.0,26.3,30.00,NNE,13,0.0,4.0,60,0.00,,,0.03,Wunderground v.1.15,2013-02-21 00:04:00,
2013-02-20 16:09:00,38.9,24.9,30.00,NW,314,1.0,1.0,57,0.00,,,0.03,Wunderground v.1.15,2013-02-21 00:09:00,
2013-02-20 16:15:00,38.8,24.4,30.00,NNE,27,1.0,4.0,56,0.00,,,0.03,Wunderground v.1.15,2013-02-21 00:15:00,
2013-02-20 16:20:00,38.9,21.8,30.00,NNE,23,1.0,1.0,50,0.00,,,0.03,Wunderground v.1.15,2013-02-21 00:20:00,
2013-02-20 16:25:00,38.8,21.3,30.00,NNE,22,0.0,4.0,49,0.00,,,0.03,Wunderground v.1.15,2013-02-21 00:25:00,
2013-02-20 16:30:00,38.8,19.2,30.00,ENE,57,0.0,4.0,45,0.00,,,0.03,Wunderground v.1.15,2013-02-21 00:30:00,
2013-02-20 16:40:00,38.8,19.8,30.00,NW,312,0.0,4.0,46,0.00,,,0.03,Wunderground v.1.15,2013-02-21 00:40:00,
2013-02-20 16:45:00,38.6,20.6,30.00,NW,319,0.0,4.0,48,0.00,,,0.03,Wunderground v.1.15,2013-02-21 00:45:00,
2013-02-20 16:50:00,38.5,21.0,30.00,NNW,334,1.0,1.0,49,0.00,,,0.03,Wunderground v.1.15,2013-02-21 00:50:00,
2013-02-20 16:55:00,38.4,21.4,30.00,West,259,0.0,4.0,50,0.00,,,0.03,Wunderground v.1.15,2013-02-21 00:55:00,
2013-02-20 17:00:00,38.2,23.4,30.00,NE,52,0.0,4.0,55,0.00,,,0.03,Wunderground v.1.15,2013-02-21 01:00:00,
2013-02-20 17:04:00,38.2,23.0,30.00,NE,44,0.0,4.0,54,0.00,,,0.03,Wunderground v.1.15,2013-02-21 01:04:00,
2013-02-20 17:10:00,38.2,21.2,30.00,NE,44,0.0,4.0,50,0.00,,,0.03,Wunderground v.1.15,2013-02-21 01:10:00,
2013-02-20 17:15:00,38.1,20.1,30.00,North,9,0.0,4.0,48,0.00,,,0.03,Wunderground v.1.15,2013-02-21 01:15:00,
2013-02-20 17:20:00,38.0,20.0,30.00,West,278,0.0,4.0,48,0.00,,,0.03,Wunderground v.1.15,2013-02-21 01:20:00,
2013-02-20 17:25:00,38.0,19.0,30.00,West,278,0.0,4.0,46,0.00,,,0.03,Wunderground v.1.15,2013-02-21 01:25:00,
2013-02-20 17:30:00,37.9,17.9,30.00,North,4,0.0,4.0,44,0.00,,,0.03,Wunderground v.1.15,2013-02-21 01:30:00,
2013-02-20 17:35:00,37.9,16.8,30.00,NNE,15,0.0,4.0,42,0.00,,,0.03,Wunderground v.1.15,2013-02-21 01:35:00,
2013-02-20 17:40:00,37.9,15.7,30.00,West,280,0.0,4.0,40,0.00,,,0.03,Wunderground v.1.15,2013-02-21 01:40:00,
2013-02-20 17:45:00,37.8,15.0,30.00,West,280,0.0,4.0,39,0.00,,,0.03,Wunderground v.1.15,2013-02-21 01:45:00,
2013-02-20 17:50:00,37.8,14.4,30.00,West,280,0.0,4.0,38,0.00,,,0.03,Wunderground v.1.15,2013-02-21 01:50:00,
2013-02-20 17:55:00,37.8,12.6,30.00,West,280,0.0,4.0,35,0.00,,,0.03,Wunderground v.1.15,2013-02-21 01:55:00,
2013-02-20 18:00:00,37.7,11.8,30.00,West,280,0.0,4.0,34,0.00,,,0.03,Wunderground v.1.15,2013-02-21 02:00:00,
2013-02-20 18:10:00,37.7,11.1,30.00,NW,320,0.0,4.0,33,0.00,,,0.03,Wunderground v.1.15,2013-02-21 02:10:00,
2013-02-20 18:15:00,37.6,11.7,30.01,ENE,65,0.0,4.0,34,0.00,,,0.03,Wunderground v.1.15,2013-02-21 02:15:00,
2013-02-20 18:20:00,37.6,11.7,30.00,ENE,65,0.0,4.0,34,0.00,,,0.03,Wunderground v.1.15,2013-02-21 02:20:00,
2013-02-20 18:24:00,37.6,11.7,30.01,ENE,65,0.0,4.0,34,0.00,,,0.03,Wunderground v.1.15,2013-02-21 02:24:00,
2013-02-20 18:30:00,37.6,11.7,30.01,ENE,65,0.0,4.0,34,0.00,,,0.03,Wunderground v.1.15,2013-02-21 02:30:00,
2013-02-20 18:35:00,37.7,10.4,30.01,West,267,0.0,4.0,32,0.00,,,0.03,Wunderground v.1.15,2013-02-21 02:35:00,
2013-02-20 18:40:00,37.7,9.7,30.01,West,266,0.0,4.0,31,0.00,,,0.03,Wunderground v.1.15,2013-02-21 02:40:00,
2013-02-20 18:45:00,37.6,8.9,30.01,West,266,0.0,4.0,30,0.00,,,0.03,Wunderground v.1.15,2013-02-21 02:45:00,
2013-02-20 18:50:00,37.6,9.6,30.01,West,267,0.0,4.0,31,0.00,,,0.03,Wunderground v.1.15,2013-02-21 02:50:00,
2013-02-20 18:54:00,37.6,9.6,30.01,West,267,0.0,4.0,31,0.00,,,0.03,Wunderground v.1.15,2013-02-21 02:54:00,
2013-02-20 19:00:00,37.6,11.7,30.00,NNE,22,0.0,4.0,34,0.00,,,0.03,Wunderground v.1.15,2013-02-21 03:00:00,
2013-02-20 19:05:00,37.6,12.4,30.00,NNW,333,0.0,4.0,35,0.00,,,0.03,Wunderground v.1.15,2013-02-21 03:05:00,
2013-02-20 19:10:00,37.6,12.4,30.00,NNW,333,0.0,4.0,35,0.00,,,0.03,Wunderground v.1.15,2013-02-21 03:10:00,
2013-02-20 19:15:00,37.6,12.4,30.01,North,349,0.0,4.0,35,0.00,,,0.03,Wunderground v.1.15,2013-02-21 03:15:00,
2013-02-20 19:20:00,37.6,14.2,30.01,North,356,0.0,4.0,38,0.00,,,0.03,Wunderground v.1.15,2013-02-21 03:20:00,
2013-02-20 19:30:00,37.7,16.1,30.01,West,269,0.0,4.0,41,0.00,,,0.03,Wunderground v.1.15,2013-02-21 03:30:00,
2013-02-20 19:35:00,37.6,16.0,30.01,West,268,0.0,4.0,41,0.00,,,0.03,Wunderground v.1.15,2013-02-21 03:35:00,
2013-02-20 19:40:00,37.6,14.8,30.01,West,268,0.0,4.0,39,0.00,,,0.03,Wunderground v.1.15,2013-02-21 03:40:00,
2013-02-20 19:45:00,37.6,13.6,30.01,West,259,0.0,4.0,37,0.00,,,0.03,Wunderground v.1.15,2013-02-21 03:45:00,
2013-02-20 19:50:00,37.5,14.2,30.00,WSW,239,0.0,4.0,38,0.00,,,0.03,Wunderground v.1.15,2013-02-21 03:50:00,
2013-02-20 20:00:00,37.5,14.2,30.01,SE,136,0.0,4.0,38,0.00,,,0.03,Wunderground v.1.15,2013-02-21 04:00:00,
2013-02-20 20:05:00,37.4,14.1,30.01,SW,236,0.0,4.0,38,0.00,,,0.03,Wunderground v.1.15,2013-02-21 04:05:00,
2013-02-20 20:10:00,37.4,13.5,30.00,SW,236,0.0,4.0,37,0.00,,,0.03,Wunderground v.1.15,2013-02-21 04:10:00,
2013-02-20 20:15:00,37.3,12.7,30.00,SW,236,0.0,4.0,36,0.00,,,0.03,Wunderground v.1.15,2013-02-21 04:15:00,
2013-02-20 20:19:00,37.3,11.5,30.00,SW,236,0.0,4.0,34,0.00,,,0.03,Wunderground v.1.15,2013-02-21 04:19:00,
2013-02-20 20:25:00,37.3,10.1,30.01,SW,236,0.0,4.0,32,0.00,,,0.03,Wunderground v.1.15,2013-02-21 04:25:00,
2013-02-20 20:30:00,37.2,8.6,30.00,SW,236,0.0,4.0,30,0.00,,,0.03,Wunderground v.1.15,2013-02-21 04:30:00,
2013-02-20 20:35:00,37.1,7.7,30.00,SW,236,0.0,4.0,29,0.00,,,0.03,Wunderground v.1.15,2013-02-21 04:35:00,
2013-02-20 20:40:00,37.2,6.2,30.01,SW,236,0.0,4.0,27,0.00,,,0.03,Wunderground v.1.15,2013-02-21 04:40:00,
2013-02-20 20:45:00,37.2,4.5,30.01,SW,236,0.0,4.0,25,0.00,,,0.03,Wunderground v.1.15,2013-02-21 04:45:00,
2013-02-20 20:50:00,37.1,3.6,30.01,SW,236,0.0,4.0,24,0.00,,,0.03,Wunderground v.1.15,2013-02-21 04:50:00,
2013-02-20 20:55:00,37.1,3.6,30.01,SW,236,0.0,4.0,24,0.00,,,0.04,Wunderground v.1.15,2013-02-21 04:55:00,
2013-02-20 21:00:00,37.0,3.5,30.01,WSW,249,0.0,4.0,24,0.00,,,0.04,Wunderground v.1.15,2013-02-21 05:00:00,
2013-02-20 21:05:00,36.9,4.3,30.01,NNE,29,0.0,4.0,25,0.00,,,0.04,Wunderground v.1.15,2013-02-21 05:05:00,
2013-02-20 21:10:00,37.0,4.4,30.01,SSW,200,0.0,4.0,25,0.00,,,0.04,Wunderground v.1.15,2013-02-21 05:10:00,
2013-02-20 21:15:00,37.1,5.3,30.01,WNW,291,0.0,4.0,26,0.00,,,0.04,Wunderground v.1.15,2013-02-21 05:15:00,
2013-02-20 21:20:00,37.1,6.9,30.01,SE,143,1.0,1.0,28,0.00,,,0.04,Wunderground v.1.15,2013-02-21 05:20:00,
2013-02-20 21:25:00,37.2,8.6,30.01,West,262,1.0,4.0,30,0.00,,,0.04,Wunderground v.1.15,2013-02-21 05:25:00,
2013-02-20 21:30:00,37.3,9.4,30.01,NNW,333,0.0,4.0,31,0.00,,,0.04,Wunderground v.1.15,2013-02-21 05:30:00,
2013-02-20 21:35:00,37.3,9.4,30.02,NE,39,0.0,4.0,31,0.00,,,0.04,Wunderground v.1.15,2013-02-21 05:35:00,
2013-02-20 21:40:00,37.2,10.0,30.02,West,263,0.0,4.0,32,0.00,,,0.04,Wunderground v.1.15,2013-02-21 05:40:00,
2013-02-20 21:45:00,37.2,10.0,30.01,WSW,250,0.0,4.0,32,0.00,,,0.04,Wunderground v.1.15,2013-02-21 05:45:00,
2013-02-20 21:55:00,37.3,13.4,30.02,SW,231,1.0,4.0,37,0.00,,,0.04,Wunderground v.1.15,2013-02-21 05:55:00,
2013-02-20 22:00:00,37.4,14.7,30.02,WNW,285,1.0,1.0,39,0.00,,,0.04,Wunderground v.1.15,2013-02-21 06:00:00,
2013-02-20 22:05:00,37.4,17.4,30.02,WSW,246,1.0,4.0,44,0.00,,,0.04,Wunderground v.1.15,2013-02-21 06:05:00,
2013-02-20 22:10:00,37.5,20.1,30.02,WSW,238,0.0,4.0,49,0.00,,,0.04,Wunderground v.1.15,2013-02-21 06:10:00,
2013-02-20 22:15:00,37.5,20.1,30.02,WSW,239,0.0,4.0,49,0.00,,,0.04,Wunderground v.1.15,2013-02-21 06:15:00,
2013-02-20 22:25:00,37.4,19.5,30.01,East,94,0.0,4.0,48,0.00,,,0.04,Wunderground v.1.15,2013-02-21 06:25:00,
2013-02-20 22:30:00,37.2,19.8,30.01,WNW,285,0.0,4.0,49,0.00,,,0.04,Wunderground v.1.15,2013-02-21 06:30:00,
2013-02-20 22:35:00,37.0,20.1,30.02,WSW,252,1.0,4.0,50,0.00,,,0.04,Wunderground v.1.15,2013-02-21 06:35:00,
2013-02-20 22:40:00,36.8,19.9,30.02,WSW,256,1.0,4.0,50,0.00,,,0.04,Wunderground v.1.15,2013-02-21 06:40:00,
2013-02-20 22:45:00,36.7,18.8,30.02,SW,219,1.0,4.0,48,0.00,,,0.04,Wunderground v.1.15,2013-02-21 06:45:00,
2013-02-20 22:55:00,36.7,17.3,30.02,WSW,249,1.0,4.0,45,0.00,,,0.04,Wunderground v.1.15,2013-02-21 06:55:00,
2013-02-20 23:00:00,36.7,16.8,30.01,WSW,255,0.0,4.0,44,0.00,,,0.04,Wunderground v.1.15,2013-02-21 07:00:00,
2013-02-20 23:05:00,36.7,17.3,30.01,SW,232,1.0,4.0,45,0.00,,,0.04,Wunderground v.1.15,2013-02-21 07:05:00,
2013-02-20 23:10:00,36.8,19.9,30.02,West,276,1.0,4.0,50,0.00,,,0.04,Wunderground v.1.15,2013-02-21 07:10:00,
2013-02-20 23:14:00,36.8,19.9,30.01,WNW,290,1.0,4.0,50,0.00,,,0.04,Wunderground v.1.15,2013-02-21 07:14:00,
2013-02-20 23:19:00,36.8,19.9,30.02,NNW,338,1.0,4.0,50,0.00,,,0.04,Wunderground v.1.15,2013-02-21 07:19:00,
2013-02-20 23:25:00,36.9,20.4,30.01,NNE,23,1.0,4.0,51,0.00,,,0.04,Wunderground v.1.15,2013-02-21 07:25:00,
2013-02-20 23:30:00,37.0,20.5,30.01,NE,56,2.0,6.0,51,0.00,,,0.04,Wunderground v.1.15,2013-02-21 07:30:00,
2013-02-20 23:35:00,37.1,22.4,30.00,NNW,332,2.0,6.0,55,0.00,,,0.04,Wunderground v.1.15,2013-02-21 07:35:00,
2013-02-20 23:40:00,37.1,23.7,30.00,ENE,58,2.0,8.0,58,0.00,,,0.04,Wunderground v.1.15,2013-02-21 07:40:00,
2013-02-20 23:45:00,37.1,24.9,30.00,West,273,2.0,8.0,61,0.00,,,0.04,Wunderground v.1.15,2013-02-21 07:45:00,
2013-02-20 23:50:00,37.0,25.6,30.00,NE,47,2.0,4.0,63,0.00,,,0.04,Wunderground v.1.15,2013-02-21 07:50:00,
2013-02-20 23:55:00,36.9,25.1,30.00,NE,48,2.0,4.0,62,0.00,,,0.04,Wunderground v.1.15,2013-02-21 07:55:00,